Time,TemperatureF,DewpointF,PressureIn,WindDirection,WindDirectionDegrees,WindSpeedMPH,WindSpeedGustMPH,Humidity,HourlyPrecipIn,Conditions,Clouds,dailyrainin,SoftwareType,DateUTC
2013-06-26 00:00:00,67.4,65.3,29.90,NE,53,0.0,2.0,93,0.00,,,0.00,Wunderground v.1.13,2013-06-26 04:00:00,
2013-06-26 00:05:00,67.4,65.3,29.92,SSE,164,1.0,1.0,93,0.00,,,0.00,Wunderground v.1.13,2013-06-26 04:05:00,
2013-06-26 00:10:00,67.4,65.3,29.92,SSE,155,3.0,3.0,93,0.00,,,0.00,Wunderground v.1.13,2013-06-26 04:10:00,
2013-06-26 00:15:00,67.5,65.4,29.91,NNW,333,3.0,6.0,93,0.00,,,0.00,Wunderground v.1.13,2013-06-26 04:15:00,
2013-06-26 00:25:00,67.8,65.7,29.95,SSE,158,3.0,3.0,93,0.00,,,0.00,Wunderground v.1.13,2013-06-26 04:25:00,
2013-06-26 00:30:00,68.0,65.9,29.95,SE,128,1.0,3.0,93,0.00,,,0.00,Wunderground v.1.13,2013-06-26 04:30:00,
2013-06-26 00:35:00,68.0,65.9,29.94,SE,128,1.0,1.0,93,0.00,,,0.00,Wunderground v.1.13,2013-06-26 04:35:00,
2013-06-26 00:40:00,68.0,65.9,29.94,ESE,121,1.0,1.0,93,0.00,,,0.00,Wunderground v.1.13,2013-06-26 04:40:00,
2013-06-26 00:45:00,67.9,65.8,29.93,ESE,123,1.0,2.0,93,0.00,,,0.00,Wunderground v.1.13,2013-06-26 04:45:00,
2013-06-26 00:50:00,67.8,65.7,29.93,ESE,123,1.0,5.0,93,0.00,,,0.00,Wunderground v.1.13,2013-06-26 04:50:00,
2013-06-26 00:55:00,67.6,65.2,29.94,West,280,1.0,1.0,92,0.00,,,0.00,Wunderground v.1.13,2013-06-26 04:55:00,
2013-06-26 01:05:00,67.5,65.4,29.94,SSE,161,1.0,2.0,93,0.00,,,0.00,Wunderground v.1.13,2013-06-26 05:05:00,
2013-06-26 01:15:00,67.2,65.1,29.94,SE,142,1.0,1.0,93,0.00,,,0.00,Wunderground v.1.13,2013-06-26 05:15:00,
2013-06-26 01:20:00,67.2,65.4,29.94,SE,144,0.0,1.0,94,0.00,,,0.00,Wunderground v.1.13,2013-06-26 05:20:00,
2013-06-26 01:25:00,67.2,65.4,29.95,SE,144,1.0,1.0,94,0.00,,,0.00,Wunderground v.1.13,2013-06-26 05:25:00,
2013-06-26 01:30:00,67.1,65.3,29.94,SE,144,1.0,1.0,94,0.00,,,0.00,Wunderground v.1.13,2013-06-26 05:30:00,
2013-06-26 01:40:00,67.2,65.4,29.95,SE,144,0.0,1.0,94,0.00,,,0.00,Wunderground v.1.13,2013-06-26 05:40:00,
2013-06-26 01:45:00,67.2,65.4,29.94,SE,144,0.0,0.0,94,0.00,,,0.00,Wunderground v.1.13,2013-06-26 05:45:00,
2013-06-26 01:50:00,67.2,65.4,29.92,SE,144,0.0,5.0,94,0.00,,,0.00,Wunderground v.1.13,2013-06-26 05:50:00,
2013-06-26 01:55:00,67.2,65.4,29.93,SE,144,0.0,5.0,94,0.00,,,0.00,Wunderground v.1.13,2013-06-26 05:55:00,
2013-06-26 02:00:00,67.1,65.3,29.93,SE,144,0.0,5.0,94,0.00,,,0.00,Wunderground v.1.13,2013-06-26 06:00:00,
2013-06-26 02:05:00,67.2,65.4,29.93,SE,144,0.0,0.0,94,0.00,,,0.00,Wunderground v.1.13,2013-06-26 06:05:00,
2013-06-26 02:15:00,67.1,65.3,29.92,SE,144,0.0,0.0,94,0.00,,,0.00,Wunderground v.1.13,2013-06-26 06:15:00,
2013-06-26 02:20:00,67.0,65.2,29.92,SE,144,0.0,0.0,94,0.00,,,0.00,Wunderground v.1.13,2013-06-26 06:20:00,
2013-06-26 02:25:00,67.0,65.2,29.92,SE,144,0.0,0.0,94,0.00,,,0.00,Wunderground v.1.13,2013-06-26 06:25:00,
2013-06-26 02:30:00,67.0,65.2,29.92,SE,144,0.0,0.0,94,0.00,,,0.00,Wunderground v.1.13,2013-06-26 06:30:00,
2013-06-26 02:35:00,67.0,65.2,29.92,SE,144,0.0,0.0,94,0.00,,,0.00,Wunderground v.1.13,2013-06-26 06:35:00,
2013-06-26 02:45:00,67.0,65.2,29.92,SE,144,0.0,1.0,94,0.00,,,0.00,Wunderground v.1.13,2013-06-26 06:45:00,
2013-06-26 02:50:00,67.1,65.3,29.93,SE,144,0.0,1.0,94,0.00,,,0.00,Wunderground v.1.13,2013-06-26 06:50:00,
2013-06-26 02:55:00,67.1,65.3,29.93,SE,144,1.0,1.0,94,0.00,,,0.00,Wunderground v.1.13,2013-06-26 06:55:00,
2013-06-26 03:00:00,67.1,65.6,29.93,SE,144,1.0,1.0,95,0.00,,,0.00,Wunderground v.1.13,2013-06-26 07:00:00,
2013-06-26 03:05:00,67.0,65.5,29.92,SE,144,0.0,0.0,95,0.00,,,0.00,Wunderground v.1.13,2013-06-26 07:05:00,
2013-06-26 03:15:00,67.0,65.5,29.93,SE,144,0.0,0.0,95,0.00,,,0.00,Wunderground v.1.13,2013-06-26 07:15:00,
2013-06-26 03:20:00,66.9,65.4,29.92,ENE,60,0.0,0.0,95,0.00,,,0.00,Wunderground v.1.13,2013-06-26 07:20:00,
2013-06-26 03:25:00,66.8,65.3,29.92,ENE,69,1.0,1.0,95,0.00,,,0.00,Wunderground v.1.13,2013-06-26 07:25:00,
2013-06-26 03:35:00,66.7,65.2,29.91,ESE,103,0.0,0.0,95,0.00,,,0.00,Wunderground v.1.13,2013-06-26 07:35:00,
2013-06-26 03:40:00,66.6,65.1,29.91,SE,128,1.0,1.0,95,0.00,,,0.00,Wunderground v.1.13,2013-06-26 07:40:00,
2013-06-26 03:50:00,66.6,65.1,29.91,SE,128,0.0,1.0,95,0.00,,,0.00,Wunderground v.1.13,2013-06-26 07:50:00,
2013-06-26 03:55:00,66.6,65.1,29.91,SE,128,0.0,1.0,95,0.00,,,0.00,Wunderground v.1.13,2013-06-26 07:55:00,
2013-06-26 04:00:00,66.6,65.1,29.91,SE,128,0.0,1.0,95,0.00,,,0.00,Wunderground v.1.13,2013-06-26 08:00:00,
2013-06-26 04:05:00,66.6,65.1,29.91,SE,128,0.0,0.0,95,0.00,,,0.00,Wunderground v.1.13,2013-06-26 08:05:00,
2013-06-26 04:15:00,66.5,65.0,29.91,SE,128,0.0,1.0,95,0.00,,,0.00,Wunderground v.1.13,2013-06-26 08:15:00,
2013-06-26 04:20:00,66.5,65.0,29.91,NE,47,1.0,1.0,95,0.00,,,0.00,Wunderground v.1.13,2013-06-26 08:20:00,
2013-06-26 04:25:00,66.4,64.9,29.91,NE,47,1.0,1.0,95,0.00,,,0.00,Wunderground v.1.13,2013-06-26 08:25:00,
2013-06-26 04:30:00,66.4,64.9,29.91,NE,47,0.0,0.0,95,0.00,,,0.00,Wunderground v.1.13,2013-06-26 08:30:00,
2013-06-26 04:35:00,66.4,64.9,29.91,NE,46,0.0,0.0,95,0.00,,,0.00,Wunderground v.1.13,2013-06-26 08:35:00,
2013-06-26 04:40:00,66.4,64.9,29.91,NE,47,0.0,0.0,95,0.00,,,0.00,Wunderground v.1.13,2013-06-26 08:40:00,
2013-06-26 04:45:00,66.4,64.9,29.91,NE,47,0.0,1.0,95,0.00,,,0.00,Wunderground v.1.13,2013-06-26 08:45:00,
2013-06-26 04:55:00,66.4,64.9,29.89,NE,47,0.0,1.0,95,0.00,,,0.00,Wunderground v.1.13,2013-06-26 08:55:00,
2013-06-26 05:05:00,66.3,64.8,29.90,NE,47,0.0,0.0,95,0.00,,,0.00,Wunderground v.1.13,2013-06-26 09:05:00,
2013-06-26 05:15:00,66.2,64.7,29.91,NE,46,0.0,0.0,95,0.00,,,0.00,Wunderground v.1.13,2013-06-26 09:15:00,
2013-06-26 05:20:00,66.3,64.8,29.90,NE,47,0.0,0.0,95,0.00,,,0.00,Wunderground v.1.13,2013-06-26 09:20:00,
2013-06-26 05:25:00,66.3,64.8,29.91,NE,46,0.0,0.0,95,0.00,,,0.00,Wunderground v.1.13,2013-06-26 09:25:00,
2013-06-26 05:35:00,66.4,64.9,29.90,NE,47,0.0,0.0,95,0.00,,,0.00,Wunderground v.1.13,2013-06-26 09:35:00,
2013-06-26 05:40:00,66.4,64.9,29.90,NE,47,0.0,0.0,95,0.00,,,0.00,Wunderground v.1.13,2013-06-26 09:40:00,
2013-06-26 05:45:00,66.4,64.9,29.90,NE,46,0.0,0.0,95,0.00,,,0.00,Wunderground v.1.13,2013-06-26 09:45:00,
2013-06-26 05:50:00,66.4,64.9,29.90,NE,48,0.0,2.0,95,0.00,,,0.00,Wunderground v.1.13,2013-06-26 09:50:00,
2013-06-26 06:00:00,66.5,65.0,29.92,NE,51,0.0,2.0,95,0.00,,,0.00,Wunderground v.1.13,2013-06-26 10:00:00,
2013-06-26 06:05:00,66.5,65.0,29.93,NW,321,0.0,0.0,95,0.00,,,0.00,Wunderground v.1.13,2013-06-26 10:05:00,
2013-06-26 06:15:00,66.5,65.0,29.93,NW,321,0.0,0.0,95,0.00,,,0.00,Wunderground v.1.13,2013-06-26 10:15:00,
2013-06-26 06:20:00,66.5,65.0,29.91,NW,321,0.0,0.0,95,0.00,,,0.00,Wunderground v.1.13,2013-06-26 10:20:00,
2013-06-26 06:25:00,66.5,65.0,29.90,NW,321,0.0,0.0,95,0.00,,,0.00,Wunderground v.1.13,2013-06-26 10:25:00,
2013-06-26 06:35:00,66.3,64.8,29.90,NW,321,0.0,0.0,95,0.00,,,0.00,Wunderground v.1.13,2013-06-26 10:35:00,
2013-06-26 06:40:00,66.3,64.8,29.89,NW,321,0.0,1.0,95,0.00,,,0.00,Wunderground v.1.13,2013-06-26 10:40:00,
2013-06-26 06:45:00,66.3,64.8,29.88,NW,321,0.0,3.0,95,0.00,,,0.00,Wunderground v.1.13,2013-06-26 10:45:00,
2013-06-26 06:55:00,66.3,65.1,29.87,ENE,57,1.0,1.0,96,0.00,,,0.00,Wunderground v.1.13,2013-06-26 10:55:00,
2013-06-26 07:00:00,66.2,65.0,29.85,SE,133,1.0,1.0,96,0.00,,,0.00,Wunderground v.1.13,2013-06-26 11:00:00,
2013-06-26 07:05:00,66.2,64.7,29.83,NNW,329,1.0,1.0,95,0.00,,,0.00,Wunderground v.1.13,2013-06-26 11:05:00,
2013-06-26 07:15:00,66.2,64.7,29.85,ESE,123,1.0,4.0,95,0.00,,,0.00,Wunderground v.1.13,2013-06-26 11:15:00,
2013-06-26 07:20:00,66.2,65.0,29.86,NE,53,1.0,1.0,96,0.00,,,0.00,Wunderground v.1.13,2013-06-26 11:20:00,
2013-06-26 07:25:00,66.3,65.1,29.86,ENE,74,1.0,1.0,96,0.00,,,0.00,Wunderground v.1.13,2013-06-26 11:25:00,
2013-06-26 07:30:00,66.4,65.2,29.86,ENE,65,1.0,1.0,96,0.00,,,0.00,Wunderground v.1.13,2013-06-26 11:30:00,
2013-06-26 07:40:00,66.5,65.3,29.85,ESE,113,1.0,1.0,96,0.00,,,0.00,Wunderground v.1.13,2013-06-26 11:40:00,
2013-06-26 07:45:00,66.6,65.4,29.86,ESE,113,1.0,1.0,96,0.00,,,0.00,Wunderground v.1.13,2013-06-26 11:45:00,
2013-06-26 07:50:00,66.8,65.6,29.85,SSW,200,0.0,3.0,96,0.00,,,0.00,Wunderground v.1.13,2013-06-26 11:50:00,
2013-06-26 07:55:00,67.0,65.8,29.85,SE,132,0.0,3.0,96,0.00,,,0.00,Wunderground v.1.13,2013-06-26 11:55:00,
2013-06-26 08:00:00,67.1,65.9,29.85,SE,132,0.0,3.0,96,0.00,,,0.00,Wunderground v.1.13,2013-06-26 12:00:00,
2013-06-26 08:05:00,67.3,66.1,29.85,East,92,0.0,1.0,96,0.00,,,0.00,Wunderground v.1.13,2013-06-26 12:05:00,
2013-06-26 08:15:00,67.5,66.3,29.84,ESE,121,1.0,1.0,96,0.00,,,0.00,Wunderground v.1.13,2013-06-26 12:15:00,
2013-06-26 08:20:00,67.6,66.4,29.84,NNW,333,0.0,0.0,96,0.00,,,0.00,Wunderground v.1.13,2013-06-26 12:20:00,
2013-06-26 08:25:00,67.9,66.7,29.84,SE,128,0.0,2.0,96,0.00,,,0.00,Wunderground v.1.13,2013-06-26 12:25:00,
2013-06-26 08:30:00,67.8,66.6,29.84,SE,128,0.0,0.0,96,0.00,,,0.00,Wunderground v.1.13,2013-06-26 12:30:00,
2013-06-26 08:35:00,68.0,66.8,29.84,SE,128,0.0,0.0,96,0.00,,,0.00,Wunderground v.1.13,2013-06-26 12:35:00,
2013-06-26 08:45:00,68.9,67.7,29.85,ENE,64,0.0,0.0,96,0.00,,,0.00,Wunderground v.1.13,2013-06-26 12:45:00,
2013-06-26 08:55:00,69.5,68.3,29.86,ENE,65,0.0,1.0,96,0.00,,,0.00,Wunderground v.1.13,2013-06-26 12:55:00,
2013-06-26 09:00:00,69.7,68.5,29.86,ENE,74,0.0,1.0,96,0.00,,,0.00,Wunderground v.1.13,2013-06-26 13:00:00,
2013-06-26 09:05:00,69.7,68.5,29.86,ENE,74,0.0,0.0,96,0.00,,,0.00,Wunderground v.1.13,2013-06-26 13:05:00,
2013-06-26 09:15:00,69.6,68.4,29.86,ENE,74,0.0,0.0,96,0.00,,,0.00,Wunderground v.1.13,2013-06-26 13:15:00,
2013-06-26 09:20:00,69.6,68.4,29.86,ENE,74,0.0,0.0,96,0.00,,,0.00,Wunderground v.1.13,2013-06-26 13:20:00,
2013-06-26 09:25:00,69.7,68.5,29.86,ENE,74,0.0,0.0,96,0.00,,,0.00,Wunderground v.1.13,2013-06-26 13:25:00,
2013-06-26 09:35:00,69.9,68.7,29.86,East,83,0.0,1.0,96,0.00,,,0.00,Wunderground v.1.13,2013-06-26 13:35:00,
2013-06-26 09:45:00,70.2,69.0,29.86,SSE,163,1.0,2.0,96,0.00,,,0.00,Wunderground v.1.13,2013-06-26 13:45:00,
2013-06-26 09:55:00,71.2,69.4,29.86,SE,133,1.0,5.0,94,0.00,,,0.00,Wunderground v.1.13,2013-06-26 13:55:00,
2013-06-26 10:05:00,72.1,69.3,29.86,West,279,2.0,7.0,91,0.00,,,0.00,Wunderground v.1.13,2013-06-26 14:05:00,
2013-06-26 10:15:00,72.8,69.7,29.85,WSW,258,2.0,2.0,90,0.00,,,0.00,Wunderground v.1.13,2013-06-26 14:15:00,
2013-06-26 10:25:00,73.9,69.8,29.85,NW,310,3.0,3.0,87,0.00,,,0.00,Wunderground v.1.13,2013-06-26 14:25:00,
2013-06-26 10:35:00,74.5,70.0,29.86,West,268,2.0,4.0,86,0.00,,,0.00,Wunderground v.1.13,2013-06-26 14:35:00,
2013-06-26 10:45:00,74.6,70.5,29.87,ESE,115,2.0,2.0,87,0.00,,,0.00,Wunderground v.1.13,2013-06-26 14:45:00,
2013-06-26 10:50:00,74.5,70.0,29.87,WNW,283,2.0,7.0,86,0.00,,,0.00,Wunderground v.1.13,2013-06-26 14:50:00,
2013-06-26 10:55:00,74.3,69.5,29.87,SW,234,3.0,7.0,85,0.00,,,0.00,Wunderground v.1.13,2013-06-26 14:55:00,
2013-06-26 11:00:00,74.4,69.9,29.87,SSE,159,3.0,3.0,86,0.00,,,0.00,Wunderground v.1.13,2013-06-26 15:00:00,
2013-06-26 11:05:00,74.7,70.6,29.87,SSE,157,2.0,2.0,87,0.00,,,0.00,Wunderground v.1.13,2013-06-26 15:05:00,
2013-06-26 11:15:00,75.2,70.7,29.87,WNW,283,2.0,4.0,86,0.00,,,0.00,Wunderground v.1.13,2013-06-26 15:15:00,
2013-06-26 11:25:00,75.3,70.5,29.87,West,261,2.0,4.0,85,0.00,,,0.00,Wunderground v.1.13,2013-06-26 15:25:00,
2013-06-26 11:35:00,75.5,70.7,29.87,WSW,256,2.0,2.0,85,0.00,,,0.00,Wunderground v.1.13,2013-06-26 15:35:00,
2013-06-26 11:45:00,76.7,71.5,29.86,South,190,1.0,2.0,84,0.00,,,0.00,Wunderground v.1.13,2013-06-26 15:45:00,
2013-06-26 11:55:00,77.7,71.0,29.87,WSW,248,2.0,2.0,80,0.00,,,0.00,Wunderground v.1.13,2013-06-26 15:55:00,
2013-06-26 12:05:00,78.2,70.8,29.86,West,263,2.0,2.0,78,0.00,,,0.00,Wunderground v.1.13,2013-06-26 16:05:00,
2013-06-26 12:15:00,78.3,71.2,29.87,SW,221,1.0,2.0,79,0.00,,,0.00,Wunderground v.1.13,2013-06-26 16:15:00,
2013-06-26 12:20:00,78.3,70.5,29.87,West,264,2.0,3.0,77,0.00,,,0.00,Wunderground v.1.13,2013-06-26 16:20:00,
2013-06-26 12:30:00,78.9,71.5,29.87,WSW,244,2.0,2.0,78,0.00,,,0.00,Wunderground v.1.13,2013-06-26 16:30:00,
2013-06-26 12:40:00,79.4,70.4,29.88,West,279,2.0,2.0,74,0.00,,,0.00,Wunderground v.1.13,2013-06-26 16:40:00,
2013-06-26 12:45:00,79.2,71.0,29.88,WNW,300,3.0,3.0,76,0.00,,,0.00,Wunderground v.1.13,2013-06-26 16:45:00,
2013-06-26 12:50:00,79.1,70.9,29.88,West,273,2.0,2.0,76,0.00,,,0.00,Wunderground v.1.13,2013-06-26 16:50:00,
2013-06-26 13:00:00,78.7,70.5,29.87,West,265,1.0,6.0,76,0.00,,,0.00,Wunderground v.1.13,2013-06-26 17:00:00,
2013-06-26 13:05:00,78.7,71.3,29.87,West,265,1.0,1.0,78,0.00,,,0.00,Wunderground v.1.13,2013-06-26 17:05:00,
2013-06-26 13:20:00,78.2,70.8,29.87,WSW,252,2.0,2.0,78,0.00,,,0.00,Wunderground v.1.13,2013-06-26 17:20:00,
2013-06-26 13:30:00,77.9,70.9,29.86,SSE,161,0.0,1.0,79,0.00,,,0.00,Wunderground v.1.13,2013-06-26 17:30:00,
2013-06-26 13:35:00,77.9,71.2,29.86,SSE,161,0.0,0.0,80,0.00,,,0.00,Wunderground v.1.13,2013-06-26 17:35:00,
2013-06-26 13:40:00,78.0,71.0,29.85,SSE,160,1.0,1.0,79,0.00,,,0.00,Wunderground v.1.13,2013-06-26 17:40:00,
2013-06-26 13:45:00,78.7,71.6,29.84,South,180,1.0,3.0,79,0.00,,,0.00,Wunderground v.1.13,2013-06-26 17:45:00,
2013-06-26 13:55:00,79.1,72.0,29.84,SSW,213,1.0,3.0,79,0.00,,,0.00,Wunderground v.1.13,2013-06-26 17:55:00,
2013-06-26 14:00:00,79.3,71.8,29.85,SSW,198,1.0,3.0,78,0.00,,,0.00,Wunderground v.1.13,2013-06-26 18:00:00,
2013-06-26 14:05:00,79.4,71.2,29.85,South,175,2.0,2.0,76,0.00,,,0.00,Wunderground v.1.13,2013-06-26 18:05:00,
2013-06-26 14:15:00,79.8,70.8,29.85,SW,215,2.0,2.0,74,0.00,,,0.00,Wunderground v.1.13,2013-06-26 18:15:00,
2013-06-26 14:25:00,79.7,70.7,29.85,SSW,208,3.0,3.0,74,0.00,,,0.00,Wunderground v.1.13,2013-06-26 18:25:00,
2013-06-26 14:30:00,79.8,69.1,29.84,SSW,193,3.0,4.0,70,0.00,,,0.00,Wunderground v.1.13,2013-06-26 18:30:00,
2013-06-26 14:40:00,80.5,69.0,29.84,SW,216,3.0,4.0,68,0.00,,,0.00,Wunderground v.1.13,2013-06-26 18:40:00,
2013-06-26 14:45:00,80.8,69.2,29.84,SSE,153,3.0,3.0,68,0.00,,,0.00,Wunderground v.1.13,2013-06-26 18:45:00,
2013-06-26 14:50:00,81.0,69.4,29.84,ESE,119,2.0,2.0,68,0.00,,,0.00,Wunderground v.1.13,2013-06-26 18:50:00,
2013-06-26 14:55:00,81.4,70.2,29.84,SSW,211,1.0,6.0,69,0.00,,,0.00,Wunderground v.1.13,2013-06-26 18:55:00,
2013-06-26 15:00:00,81.4,69.8,29.84,SE,134,2.0,6.0,68,0.00,,,0.00,Wunderground v.1.13,2013-06-26 19:00:00,
2013-06-26 15:05:00,81.4,70.2,29.84,South,186,3.0,3.0,69,0.00,,,0.00,Wunderground v.1.13,2013-06-26 19:05:00,
2013-06-26 15:15:00,81.8,70.2,29.83,East,94,2.0,2.0,68,0.00,,,0.00,Wunderground v.1.13,2013-06-26 19:15:00,
2013-06-26 15:20:00,82.0,70.0,29.83,ESE,102,1.0,2.0,67,0.00,,,0.00,Wunderground v.1.13,2013-06-26 19:20:00,
2013-06-26 15:30:00,82.4,69.9,29.83,WNW,283,3.0,3.0,66,0.00,,,0.00,Wunderground v.1.13,2013-06-26 19:30:00,
2013-06-26 15:35:00,82.3,69.8,29.83,West,271,2.0,2.0,66,0.00,,,0.00,Wunderground v.1.13,2013-06-26 19:35:00,
2013-06-26 15:45:00,82.9,71.3,29.83,SSW,200,2.0,2.0,68,0.00,,,0.00,Wunderground v.1.13,2013-06-26 19:45:00,
2013-06-26 15:50:00,82.5,70.9,29.82,South,173,2.0,6.0,68,0.00,,,0.00,Wunderground v.1.13,2013-06-26 19:50:00,
2013-06-26 15:55:00,82.3,70.2,29.82,SW,226,3.0,8.0,67,0.00,,,0.00,Wunderground v.1.13,2013-06-26 19:55:00,
2013-06-26 16:00:00,82.2,70.6,29.82,WSW,247,2.0,6.0,68,0.00,,,0.00,Wunderground v.1.13,2013-06-26 20:00:00,
2013-06-26 16:05:00,82.5,70.9,29.82,WSW,257,2.0,2.0,68,0.00,,,0.00,Wunderground v.1.13,2013-06-26 20:05:00,
2013-06-26 16:15:00,82.6,70.5,29.82,West,271,2.0,2.0,67,0.00,,,0.00,Wunderground v.1.13,2013-06-26 20:15:00,
2013-06-26 16:20:00,82.9,70.8,29.82,WSW,244,2.0,2.0,67,0.00,,,0.00,Wunderground v.1.13,2013-06-26 20:20:00,
2013-06-26 16:30:00,82.7,71.1,29.82,SW,219,1.0,1.0,68,0.00,,,0.00,Wunderground v.1.13,2013-06-26 20:30:00,
2013-06-26 16:35:00,82.4,71.2,29.82,South,174,2.0,2.0,69,0.00,,,0.00,Wunderground v.1.13,2013-06-26 20:35:00,
2013-06-26 16:40:00,82.3,70.7,29.82,West,278,1.0,1.0,68,0.00,,,0.00,Wunderground v.1.13,2013-06-26 20:40:00,
2013-06-26 16:50:00,82.2,71.0,29.82,NW,314,1.0,1.0,69,0.00,,,0.00,Wunderground v.1.13,2013-06-26 20:50:00,
2013-06-26 17:00:00,82.5,71.3,29.82,WNW,298,1.0,1.0,69,0.00,,,0.00,Wunderground v.1.13,2013-06-26 21:00:00,
2013-06-26 17:05:00,82.5,71.3,29.81,South,182,0.0,0.0,69,0.00,,,0.00,Wunderground v.1.13,2013-06-26 21:05:00,
2013-06-26 17:15:00,83.3,70.3,29.81,WSW,244,2.0,2.0,65,0.00,,,0.00,Wunderground v.1.13,2013-06-26 21:15:00,
2013-06-26 17:20:00,83.5,71.4,29.81,WNW,302,2.0,5.0,67,0.00,,,0.00,Wunderground v.1.13,2013-06-26 21:20:00,
2013-06-26 17:30:00,83.1,71.4,29.81,NNW,333,2.0,2.0,68,0.00,,,0.00,Wunderground v.1.13,2013-06-26 21:30:00,
2013-06-26 17:35:00,83.0,71.3,29.80,West,281,2.0,2.0,68,0.00,,,0.00,Wunderground v.1.13,2013-06-26 21:35:00,
2013-06-26 17:40:00,83.2,70.7,29.80,SSE,150,1.0,1.0,66,0.00,,,0.00,Wunderground v.1.13,2013-06-26 21:40:00,
2013-06-26 17:45:00,82.8,70.7,29.80,South,171,1.0,1.0,67,0.00,,,0.00,Wunderground v.1.13,2013-06-26 21:45:00,
2013-06-26 17:55:00,82.7,71.5,29.80,West,268,1.0,1.0,69,0.00,,,0.00,Wunderground v.1.13,2013-06-26 21:55:00,
2013-06-26 18:05:00,83.0,70.9,29.79,SE,137,1.0,1.0,67,0.00,,,0.00,Wunderground v.1.13,2013-06-26 22:05:00,
2013-06-26 18:15:00,82.8,72.0,29.79,SSE,161,1.0,2.0,70,0.00,,,0.00,Wunderground v.1.13,2013-06-26 22:15:00,
2013-06-26 18:25:00,83.2,72.8,29.79,WSW,257,1.0,1.0,71,0.00,,,0.00,Wunderground v.1.13,2013-06-26 22:25:00,
2013-06-26 18:30:00,83.7,73.3,29.79,WSW,257,0.0,3.0,71,0.00,,,0.00,Wunderground v.1.13,2013-06-26 22:30:00,
2013-06-26 18:35:00,82.9,71.7,29.79,SSE,161,1.0,2.0,69,0.00,,,0.00,Wunderground v.1.13,2013-06-26 22:35:00,
2013-06-26 18:40:00,82.1,71.8,29.79,WSW,252,1.0,3.0,71,0.00,,,0.00,Wunderground v.1.13,2013-06-26 22:40:00,
2013-06-26 18:45:00,81.9,71.6,29.79,SSE,157,2.0,2.0,71,0.00,,,0.00,Wunderground v.1.13,2013-06-26 22:45:00,
2013-06-26 18:50:00,81.8,72.7,29.79,SSW,213,1.0,4.0,74,0.00,,,0.00,Wunderground v.1.13,2013-06-26 22:50:00,
2013-06-26 19:00:00,81.5,72.0,29.79,SSW,198,1.0,4.0,73,0.00,,,0.00,Wunderground v.1.13,2013-06-26 23:00:00,
2013-06-26 19:05:00,81.4,72.7,29.79,SSW,196,0.0,0.0,75,0.00,,,0.00,Wunderground v.1.13,2013-06-26 23:05:00,
2013-06-26 19:15:00,80.7,71.6,29.79,SSE,158,0.0,0.0,74,0.00,,,0.00,Wunderground v.1.13,2013-06-26 23:15:00,
2013-06-26 19:20:00,80.5,71.8,29.79,West,263,1.0,1.0,75,0.00,,,0.00,Wunderground v.1.13,2013-06-26 23:20:00,
2013-06-26 19:25:00,80.4,71.7,29.79,SSW,203,0.0,1.0,75,0.00,,,0.00,Wunderground v.1.13,2013-06-26 23:25:00,
2013-06-26 19:35:00,80.1,71.8,29.80,SSW,202,0.0,0.0,76,0.00,,,0.00,Wunderground v.1.13,2013-06-26 23:35:00,
2013-06-26 19:40:00,80.1,71.8,29.80,SSW,202,0.0,0.0,76,0.00,,,0.00,Wunderground v.1.13,2013-06-26 23:40:00,
2013-06-26 19:45:00,80.1,72.2,29.80,SSW,202,0.0,0.0,77,0.00,,,0.00,Wunderground v.1.13,2013-06-26 23:45:00,
2013-06-26 19:50:00,79.8,71.9,29.80,SSW,202,0.0,3.0,77,0.00,,,0.00,Wunderground v.1.13,2013-06-26 23:50:00,
2013-06-26 19:55:00,79.3,71.5,29.80,SSE,161,1.0,3.0,77,0.00,,,0.00,Wunderground v.1.13,2013-06-26 23:55:00,
2013-06-26 20:00:00,79.1,71.6,29.80,SSW,209,1.0,1.0,78,0.00,,,0.00,Wunderground v.1.13,2013-06-27 00:00:00,
2013-06-26 20:05:00,79.0,71.6,29.80,South,191,1.0,2.0,78,0.00,,,0.00,Wunderground v.1.13,2013-06-27 00:05:00,
2013-06-26 20:15:00,78.7,71.6,29.80,SSW,205,0.0,0.0,79,0.00,,,0.00,Wunderground v.1.13,2013-06-27 00:15:00,
2013-06-26 20:20:00,78.7,71.3,29.80,SSW,195,0.0,0.0,78,0.00,,,0.00,Wunderground v.1.13,2013-06-27 00:20:00,
2013-06-26 20:30:00,78.4,71.3,29.81,SSW,195,0.0,0.0,79,0.00,,,0.00,Wunderground v.1.13,2013-06-27 00:30:00,
2013-06-26 20:40:00,78.1,71.4,29.81,SSW,195,0.0,0.0,80,0.00,,,0.00,Wunderground v.1.13,2013-06-27 00:40:00,
2013-06-26 20:50:00,77.7,71.4,29.81,West,265,0.0,2.0,81,0.00,,,0.00,Wunderground v.1.13,2013-06-27 00:50:00,
2013-06-26 20:55:00,77.3,71.0,29.81,SE,126,0.0,2.0,81,0.00,,,0.00,Wunderground v.1.13,2013-06-27 00:55:00,
2013-06-26 21:00:00,77.1,71.2,29.81,SE,127,0.0,2.0,82,0.00,,,0.00,Wunderground v.1.13,2013-06-27 01:00:00,
2013-06-26 21:10:00,76.5,70.9,29.80,SE,127,0.0,2.0,83,0.00,,,0.00,Wunderground v.1.13,2013-06-27 01:10:00,
2013-06-26 21:15:00,76.4,70.9,29.81,SE,126,0.0,2.0,83,0.00,,,0.00,Wunderground v.1.13,2013-06-27 01:15:00,
2013-06-26 21:20:00,76.2,70.7,29.81,SE,127,0.0,2.0,83,0.00,,,0.00,Wunderground v.1.13,2013-06-27 01:20:00,
2013-06-26 21:25:00,76.0,70.8,29.81,SE,127,0.0,2.0,84,0.00,,,0.00,Wunderground v.1.13,2013-06-27 01:25:00,
2013-06-26 21:30:00,75.7,70.5,29.80,SE,126,0.0,2.0,84,0.00,,,0.00,Wunderground v.1.13,2013-06-27 01:30:00,
2013-06-26 21:35:00,75.4,70.2,29.81,SE,126,0.0,2.0,84,0.00,,,0.00,Wunderground v.1.13,2013-06-27 01:35:00,
2013-06-26 21:45:00,75.0,70.2,29.81,SE,127,0.0,2.0,85,0.00,,,0.00,Wunderground v.1.13,2013-06-27 01:45:00,
2013-06-26 21:50:00,74.8,70.0,29.81,SE,127,0.0,2.0,85,0.00,,,0.00,Wunderground v.1.13,2013-06-27 01:50:00,
2013-06-26 21:55:00,74.5,70.0,29.81,SE,126,0.0,2.0,86,0.00,,,0.00,Wunderground v.1.13,2013-06-27 01:55:00,
2013-06-26 22:00:00,74.3,69.8,29.81,SE,126,0.0,2.0,86,0.00,,,0.00,Wunderground v.1.13,2013-06-27 02:00:00,
2013-06-26 22:05:00,74.0,69.9,29.81,SE,127,0.0,0.0,87,0.00,,,0.00,Wunderground v.1.13,2013-06-27 02:05:00,
2013-06-26 22:15:00,73.7,69.6,29.81,SE,126,0.0,0.0,87,0.00,,,0.00,Wunderground v.1.13,2013-06-27 02:15:00,
2013-06-26 22:20:00,73.6,69.8,29.81,SE,127,0.0,0.0,88,0.00,,,0.00,Wunderground v.1.13,2013-06-27 02:20:00,
2013-06-26 22:25:00,73.4,69.6,29.81,SE,126,0.0,0.0,88,0.00,,,0.00,Wunderground v.1.13,2013-06-27 02:25:00,
2013-06-26 22:30:00,73.3,69.5,29.81,SE,126,0.0,0.0,88,0.00,,,0.00,Wunderground v.1.13,2013-06-27 02:30:00,
2013-06-26 22:35:00,73.3,69.5,29.81,SE,127,0.0,0.0,88,0.00,,,0.00,Wunderground v.1.13,2013-06-27 02:35:00,
2013-06-26 22:40:00,73.1,69.3,29.81,SE,127,0.0,0.0,88,0.00,,,0.00,Wunderground v.1.13,2013-06-27 02:40:00,
2013-06-26 22:45:00,73.0,69.2,29.81,SE,126,0.0,0.0,88,0.00,,,0.00,Wunderground v.1.13,2013-06-27 02:45:00,
2013-06-26 22:55:00,72.8,69.4,29.81,SE,126,0.0,0.0,89,0.00,,,0.00,Wunderground v.1.13,2013-06-27 02:55:00,
2013-06-26 23:00:00,72.8,69.4,29.80,SE,127,0.0,0.0,89,0.00,,,0.00,Wunderground v.1.13,2013-06-27 03:00:00,
2013-06-26 23:05:00,72.6,69.2,29.80,SE,127,0.0,0.0,89,0.00,,,0.00,Wunderground v.1.13,2013-06-27 03:05:00,
2013-06-26 23:15:00,72.3,69.2,29.79,SE,127,0.0,0.0,90,0.00,,,0.00,Wunderground v.1.13,2013-06-27 03:15:00,
2013-06-26 23:20:00,72.1,69.0,29.79,SE,127,0.0,0.0,90,0.00,,,0.00,Wunderground v.1.13,2013-06-27 03:20:00,
2013-06-26 23:25:00,72.0,68.9,29.79,SE,127,0.0,0.0,90,0.00,,,0.00,Wunderground v.1.13,2013-06-27 03:25:00,
2013-06-26 23:30:00,72.0,69.2,29.79,SE,126,0.0,0.0,91,0.00,,,0.00,Wunderground v.1.13,2013-06-27 03:30:00,
2013-06-26 23:35:00,71.9,69.1,29.79,SE,127,0.0,0.0,91,0.00,,,0.00,Wunderground v.1.13,2013-06-27 03:35:00,
2013-06-26 23:40:00,71.8,69.0,29.79,SE,127,0.0,0.0,91,0.00,,,0.00,Wunderground v.1.13,2013-06-27 03:40:00,
2013-06-26 23:45:00,71.7,68.9,29.79,SE,126,0.0,0.0,91,0.00,,,0.00,Wunderground v.1.13,2013-06-27 03:45:00,
2013-06-26 23:55:00,71.5,68.7,29.78,SE,127,0.0,0.0,91,0.00,,,0.00,Wunderground v.1.13,2013-06-27 03:55:00,